TimeEST,TemperatureF,Dew PointF,Humidity,Sea Level PressureIn,VisibilityMPH,Wind Direction,Wind SpeedMPH,Gust SpeedMPH,PrecipitationIn,Events,Conditions,WindDirDegrees,DateUTC
12:15 AM,33.8,26.6,75,29.95,10.0,West,13.8,-,N/A,,Clear,260,2013-02-15 05:15:00
12:35 AM,33.8,26.6,75,29.95,10.0,West,13.8,-,N/A,,Clear,260,2013-02-15 05:35:00
12:55 AM,33.8,26.6,75,29.95,10.0,West,15.0,-,N/A,,Clear,260,2013-02-15 05:55:00
1:35 AM,33.8,26.6,75,29.95,10.0,WSW,13.8,-,N/A,,Clear,250,2013-02-15 06:35:00
1:55 AM,32.0,26.6,80,29.95,10.0,WSW,15.0,-,N/A,,Clear,250,2013-02-15 06:55:00
2:15 AM,32.0,26.6,80,29.96,10.0,WSW,16.1,-,N/A,,Clear,250,2013-02-15 07:15:00
2:35 AM,32.0,26.6,80,29.96,10.0,WSW,15.0,-,N/A,,Clear,250,2013-02-15 07:35:00
2:55 AM,32.0,28.4,87,29.97,10.0,WSW,17.3,-,N/A,,Clear,250,2013-02-15 07:55:00
3:15 AM,32.0,28.4,87,29.96,10.0,West,17.3,21.9,N/A,,Scattered Clouds,260,2013-02-15 08:15:00
3:55 AM,32.0,28.4,87,29.95,10.0,West,16.1,-,N/A,,Clear,270,2013-02-15 08:55:00
3:56 AM,32.0,28.4,87,29.95,10.0,West,17.3,-,N/A,,Clear,270,2013-02-15 08:56:00
4:35 AM,32.0,28.4,87,29.95,10.0,West,15.0,19.6,N/A,,Clear,270,2013-02-15 09:35:00
4:55 AM,32.0,28.4,87,29.95,10.0,West,16.1,-,N/A,,Clear,270,2013-02-15 09:55:00
5:35 AM,32.0,28.4,87,29.97,10.0,West,13.8,-,N/A,,Clear,270,2013-02-15 10:35:00
5:55 AM,32.0,28.4,87,29.97,10.0,West,13.8,-,N/A,,Clear,270,2013-02-15 10:55:00
6:35 AM,32.0,28.4,87,29.97,10.0,West,12.7,-,N/A,,Clear,270,2013-02-15 11:35:00
6:55 AM,32.0,28.4,87,29.97,10.0,West,12.7,-,N/A,,Clear,270,2013-02-15 11:55:00
7:15 AM,30.2,28.4,93,29.97,10.0,West,12.7,-,N/A,,Clear,270,2013-02-15 12:15:00
7:35 AM,32.0,28.4,87,29.98,10.0,West,12.7,-,N/A,,Clear,270,2013-02-15 12:35:00
7:55 AM,33.8,28.4,81,29.99,10.0,West,11.5,-,N/A,,Clear,270,2013-02-15 12:55:00
8:15 AM,33.8,28.4,81,29.99,10.0,West,9.2,-,N/A,,Clear,260,2013-02-15 13:15:00
8:35 AM,33.8,30.2,87,30.00,10.0,WSW,9.2,-,N/A,,Clear,250,2013-02-15 13:35:00
9:16 AM,35.6,30.2,81,30.00,10.0,WSW,9.2,-,N/A,,Clear,250,2013-02-15 14:16:00
9:35 AM,37.4,30.2,75,30.00,10.0,West,9.2,-,N/A,,Clear,270,2013-02-15 14:35:00
9:55 AM,35.6,30.2,81,30.00,10.0,West,6.9,-,N/A,,Clear,280,2013-02-15 14:55:00
10:15 AM,37.4,30.2,75,29.99,10.0,West,5.8,-,N/A,,Clear,280,2013-02-15 15:15:00
10:35 AM,37.4,30.2,75,29.99,10.0,WSW,10.4,-,N/A,,Clear,250,2013-02-15 15:35:00
10:55 AM,39.2,30.2,70,29.99,10.0,WSW,13.8,18.4,N/A,,Clear,250,2013-02-15 15:55:00
11:15 AM,39.2,30.2,70,29.99,10.0,WSW,11.5,20.7,N/A,,Clear,250,2013-02-15 16:15:00
11:35 AM,41.0,30.2,65,29.98,10.0,WSW,13.8,18.4,N/A,,Clear,240,2013-02-15 16:35:00
11:55 AM,42.8,30.2,61,29.98,10.0,WSW,11.5,-,N/A,,Mostly Cloudy,240,2013-02-15 16:55:00
12:15 PM,41.0,30.2,65,29.96,10.0,SW,11.5,18.4,N/A,,Mostly Cloudy,230,2013-02-15 17:15:00
1:15 PM,42.8,28.4,57,29.94,10.0,WSW,16.1,-,N/A,,Mostly Cloudy,240,2013-02-15 18:15:00
1:35 PM,41.0,28.4,61,29.94,10.0,SW,11.5,-,N/A,,Overcast,230,2013-02-15 18:35:00
1:55 PM,42.8,28.4,57,29.92,10.0,WSW,6.9,-,N/A,,Overcast,240,2013-02-15 18:55:00
2:15 PM,42.8,28.4,57,29.93,10.0,WSW,11.5,16.1,N/A,,Overcast,240,2013-02-15 19:15:00
2:35 PM,42.8,28.4,57,29.91,10.0,SW,9.2,-,N/A,,Overcast,220,2013-02-15 19:35:00
2:55 PM,42.8,28.4,57,29.91,10.0,SSW,9.2,-,N/A,,Overcast,210,2013-02-15 19:55:00
3:15 PM,42.8,28.4,57,29.89,10.0,WSW,11.5,-,N/A,,Overcast,240,2013-02-15 20:15:00
3:35 PM,41.0,28.4,61,29.89,10.0,SSW,6.9,-,N/A,,Overcast,210,2013-02-15 20:35:00
3:55 PM,41.0,28.4,61,29.89,10.0,SSW,11.5,-,N/A,,Overcast,200,2013-02-15 20:55:00
4:15 PM,39.2,28.4,65,29.90,10.0,Calm,Calm,-,N/A,,Overcast,0,2013-02-15 21:15:00
4:35 PM,37.4,30.2,75,29.90,10.0,West,10.4,20.7,N/A,Rain,Light Rain,280,2013-02-15 21:35:00
4:55 PM,35.6,33.8,93,29.91,5.0,West,12.7,-,N/A,Snow,Light Snow,280,2013-02-15 21:55:00
5:15 PM,33.8,32.0,93,29.92,2.5,West,16.1,21.9,N/A,Snow,Light Snow,280,2013-02-15 22:15:00
5:35 PM,30.2,30.2,100,29.93,0.2,West,12.7,-,N/A,Snow,Light Snow,280,2013-02-15 22:35:00
5:55 PM,30.2,30.2,100,29.93,0.2,West,17.3,-,0.01,Snow,Snow,280,2013-02-15 22:55:00
6:15 PM,30.2,30.2,100,29.92,0.2,WNW,12.7,-,0.01,Snow,Light Snow,290,2013-02-15 23:15:00
6:35 PM,30.2,30.2,100,29.93,0.2,WNW,15.0,19.6,0.01,,Overcast,290,2013-02-15 23:35:00
6:55 PM,28.4,28.4,100,29.94,0.2,West,17.3,-,N/A,,Overcast,280,2013-02-15 23:55:00
7:15 PM,28.4,28.4,100,29.94,0.2,WNW,16.1,-,N/A,,Overcast,290,2013-02-16 00:15:00
7:35 PM,28.4,28.4,100,29.94,0.2,West,15.0,-,N/A,,Overcast,280,2013-02-16 00:35:00
7:55 PM,28.4,28.4,100,29.93,0.2,West,15.0,-,N/A,Snow,Light Snow,280,2013-02-16 00:55:00
8:15 PM,28.4,28.4,100,29.93,0.2,West,12.7,-,N/A,Snow,Light Snow,280,2013-02-16 01:15:00
8:35 PM,28.4,28.4,100,29.94,0.2,West,15.0,19.6,N/A,,Overcast,280,2013-02-16 01:35:00
8:55 PM,28.4,28.4,100,29.94,0.2,WNW,15.0,20.7,N/A,,Overcast,290,2013-02-16 01:55:00
9:15 PM,28.4,28.4,100,29.94,0.2,West,15.0,-,N/A,,Overcast,280,2013-02-16 02:15:00
9:35 PM,26.6,26.6,100,29.94,0.5,West,11.5,-,N/A,,Overcast,280,2013-02-16 02:35:00
9:55 PM,26.6,26.6,100,29.94,10.0,West,15.0,-,N/A,,Overcast,280,2013-02-16 02:55:00
10:15 PM,26.6,26.6,100,29.93,10.0,West,12.7,18.4,N/A,,Overcast,280,2013-02-16 03:15:00
10:35 PM,26.6,26.6,100,29.93,10.0,West,13.8,19.6,N/A,,Overcast,280,2013-02-16 03:35:00
10:55 PM,26.6,24.8,93,29.92,10.0,WNW,11.5,17.3,N/A,,Overcast,290,2013-02-16 03:55:00
11:15 PM,26.6,24.8,93,29.93,10.0,West,10.4,-,N/A,,Overcast,280,2013-02-16 04:15:00
11:35 PM,26.6,24.8,93,29.91,10.0,West,9.2,16.1,N/A,,Overcast,280,2013-02-16 04:35:00
11:55 PM,24.8,24.8,100,29.91,10.0,West,10.4,-,N/A,,Overcast,280,2013-02-16 04:55:00